Location: St. Louis
(38.6270°N, 90.1994°W)
Time: 10:06:13
(UTC-06:00)

Vanguard 1 - Pass Details

Date: 06 December 2021
Orbit: 652 x 3830 km, 34.2° (Epoch: 22 January)

Event Time Altitude Azimuth Distance (km) Brightness Sun altitude
Exits shadow 04:33:40 38° 265° (W) 4,579 12.8 -28.7°
Maximum altitude 04:42:55 58° 209° (SSW) 3,345 12.5 -27.0°
Drops below altitude 10° 04:56:21 10° 134° (SE) 4,528 14.2 -24.4°
Sets 04:59:14 0° 130° (SE) 5,187 14.7 -23.8°
